QPF
0.05 0.04 0.04 0.05 0.06 0.06 0.06 0.06 0.04 0.03 0.04 0.04 0.02 0.02 0.02 0.01 0.02 0.03 0.04 0.04 0.05 0.07 0.08 0.07 0.07 0.07 0.07 0.06 0.06 0.06 0.06 0.05 0.04 0.04 0.05 0.06 0.06 0.07 0.08 0.09 0.09 0.09 0.08
0.05 0.04 0.03 0.06 0.07 0.08 0.07 0.06 0.05 0.04 0.04 0.05 0.03 0.03 0.02 0.01 0.01 0.01 0.02 0.03 0.05 0.05 0.05 0.07 0.08 0.09 0.09 0.08 0.07 0.07 0.06 0.05 0.05 0.04 0.04 0.04 0.05 0.06 0.08 0.09 0.07 0.07 0.06
0.05 0.04 0.04 0.07 0.08 0.08 0.08 0.07 0.06 0.03 0.03 0.04 0.04 0.03 0.02 0.01 0.01 0.01 0.02 0.04 0.04 0.03 0.03 0.05 0.08 0.10 0.10 0.10 0.09 0.08 0.07 0.06 0.05 0.05 0.04 0.04 0.04 0.05 0.05 0.05 0.04 0.03 0.04
0.04 0.05 0.07 0.09 0.09 0.07 0.08 0.07 0.06 0.03 0.03 0.03 0.03 0.02 0.03 0.02 0.02 0.02 0.02 0.02 0.02 0.03 0.03 0.03 0.04 0.05 0.06 0.08 0.09 0.07 0.07 0.06 0.05 0.04 0.03 0.03 0.03 0.04 0.04 0.03 0.03 0.03 0.03
0.03 0.04 0.07 0.11 0.10 0.07 0.06 0.04 0.04 0.04 0.04 0.04 0.03 0.03 0.02 0.03 0.04 0.02 0.02 0.02 0.02 0.03 0.03 0.02 0.02 0.02 0.04 0.06 0.07 0.06 0.05 0.05 0.03 0.03 0.02 0.02 0.02 0.03 0.02 0.03 0.03 0.02 0.03
0.03 0.04 0.06 0.08 0.07 0.07 0.07 0.06 0.06 0.05 0.04 0.03 0.02 0.02 0.02 0.03 0.03 0.03 0.02 0.02 0.03 0.01 0.02 0.02 0.03 0.02 0.03 0.03 0.04 0.04 0.04 0.03 0.02 0.02 0.02 0.02 0.02 0.01 0.01 0.02 0.02 0.02 0.02
0.05 0.06 0.06 0.06 0.07 0.08 0.07 0.07 0.06 0.05 0.05 0.04 0.04 0.05 0.04 0.03 0.02 0.02 0.02 0.02 0.01 0.01 0.02 0.03 0.03 0.03 0.03 0.02 0.02 0.03 0.04 0.03 0.03 0.02 0.02 0.02 0.02 0.02 0.01 0.01 0.01 0.01 0.01
0.05 0.05 0.06 0.07 0.08 0.09 0.09 0.08 0.06 0.06 0.07 0.07 0.06 0.06 0.05 0.04 0.02 0.01 0.02 0.03 0.03 0.02 0.02 0.02 0.02 0.03 0.04 0.04 0.04 0.04 0.04 0.04 0.03 0.02 0.03 0.03 0.03 0.02 0.01 0.01 0.01 0.01 0.01
0.05 0.05 0.06 0.08 0.09 0.08 0.10 0.10 0.07 0.07 0.08 0.07 0.06 0.05 0.05 0.06 0.04 0.02 0.01 0.02 0.02 0.02 0.01 0.01 0.01 0.01 0.02 0.05 0.05 0.04 0.02 0.02 0.03 0.03 0.02 0.03 0.03 0.02 0.02 0.03 0.02 0.02 0.02
0.03 0.04 0.05 0.05 0.07 0.07 0.09 0.08 0.07 0.07 0.08 0.09 0.07 0.03 0.02 0.04 0.05 0.03 0.02 0.01 0.01 0.01 0.01 0.00 0.01 0.01 0.01 0.02 0.03 0.03 0.02 0.01 0.02 0.02 0.02 0.02 0.02 0.02 0.02 0.03 0.04 0.05 0.06
0.03 0.03 0.04 0.04 0.05 0.06 0.07 0.06 0.06 0.06 0.07 0.08 0.07 0.05 0.05 0.04 0.05 0.04 0.03 0.02 0.02 0.02 0.01 0.01 0.01 0.00 0.00 0.00 0.01 0.03 0.02 0.02 0.02 0.02 0.02 0.01 0.01 0.01 0.01 0.02 0.04 0.06 0.07
0.02 0.02 0.03 0.04 0.05 0.05 0.06 0.05 0.06 0.07 0.07 0.06 0.05 0.05 0.05 0.03 0.03 0.04 0.04 0.04 0.03 0.02 0.01 0.00 0.00 0.00 0.00 0.00 0.00 0.01 0.02 0.02 0.03 0.03 0.03 0.02 0.01 0.01 0.01 0.01 0.02 0.04 0.08
0.01 0.01 0.03 0.05 0.05 0.04 0.05 0.05 0.06 0.06 0.07 0.06 0.05 0.03 0.03 0.02 0.02 0.03 0.03 0.03 0.02 0.02 0.01 0.00 0.00 0.00 0.00 0.00 0.00 0.00 0.00 0.01 0.02 0.03 0.03 0.02 0.02 0.02 0.02 0.01 0.01 0.02 0.03
0.01 0.02 0.03 0.04 0.03 0.03 0.03 0.03 0.03 0.03 0.04 0.05 0.03 0.04 0.04 0.03 0.02 0.01 0.02 0.03 0.03 0.03 0.02 0.01 0.00 0.00 0.00 0.00 0.00 0.00 0.00 0.00 0.00 0.01 0.01 0.02 0.02 0.03 0.02 0.01 0.01 0.01 0.01
0.01 0.01 0.02 0.02 0.02 0.02 0.03 0.03 0.02 0.03 0.04 0.04 0.03 0.04 0.03 0.02 0.02 0.02 0.02 0.02 0.03 0.03 0.03 0.02 0.01 0.00 0.00 0.00 0.00 0.00 0.00 0.01 0.01 0.00 0.00 0.01 0.01 0.02 0.02 0.02 0.01 0.01 0.01
0.01 0.01 0.02 0.03 0.04 0.05 0.05 0.04 0.02 0.02 0.03 0.03 0.03 0.04 0.03 0.02 0.02 0.02 0.02 0.02 0.02 0.03 0.04 0.03 0.02 0.00 0.00 0.00 0.00 0.00 0.00 0.00 0.00 0.00 0.00 0.00 0.00 0.00 0.01 0.02 0.02 0.02 0.01
0.01 0.01 0.02 0.03 0.05 0.04 0.04 0.04 0.02 0.02 0.03 0.03 0.02 0.03 0.03 0.03 0.03 0.03 0.02 0.02 0.02 0.02 0.03 0.04 0.03 0.01 0.01 0.01 0.01 0.01 0.01 0.01 0.01 0.00 0.00 0.00 0.00 0.00 0.00 0.01 0.01 0.02 0.03
0.01 0.01 0.01 0.04 0.05 0.04 0.04 0.04 0.02 0.02 0.02 0.02 0.02 0.02 0.02 0.03 0.03 0.03 0.03 0.03 0.03 0.03 0.02 0.04 0.04 0.02 0.02 0.01 0.01 0.01 0.00 0.00 0.00 0.00 0.00 0.00 0.00 0.00 0.00 0.00 0.01 0.01 0.02
0.01 0.01 0.03 0.04 0.04 0.04 0.05 0.04 0.03 0.02 0.02 0.02 0.02 0.02 0.02 0.02 0.03 0.04 0.04 0.04 0.04 0.03 0.03 0.02 0.03 0.03 0.01 0.01 0.01 0.00 0.00 0.00 0.00 0.00 0.00 0.00 0.00 0.00 0.00 0.01 0.01 0.01 0.02
0.03 0.04 0.05 0.04 0.03 0.03 0.03 0.03 0.02 0.02 0.02 0.02 0.02 0.02 0.02 0.02 0.03 0.03 0.04 0.04 0.04 0.04 0.04 0.04 0.04 0.03 0.02 0.01 0.01 0.01 0.00 0.01 0.01 0.00 0.01 0.01 0.00 0.00 0.01 0.01 0.01 0.02 0.02
0.04 0.04 0.04 0.03 0.02 0.02 0.02 0.02 0.02 0.02 0.02 0.02 0.02 0.02 0.02 0.02 0.03 0.03 0.03 0.04 0.04 0.04 0.04 0.04 0.03 0.03 0.03 0.02 0.01 0.01 0.01 0.01 0.01 0.01 0.00 0.00 0.00 0.00 0.01 0.01 0.01 0.01 0.01
0.05 0.04 0.03 0.01 0.01 0.01 0.02 0.01 0.02 0.03 0.03 0.03 0.03 0.03 0.03 0.02 0.02 0.02 0.03 0.03 0.04 0.04 0.03 0.03 0.03 0.03 0.03 0.03 0.03 0.03 0.02 0.02 0.01 0.01 0.01 0.01 0.00 0.01 0.01 0.01 0.01 0.01 0.01
0.03 0.03 0.01 0.01 0.01 0.01 0.02 0.02 0.02 0.03 0.03 0.04 0.04 0.03 0.02 0.01 0.01 0.01 0.01 0.02 0.02 0.03 0.04 0.04 0.03 0.03 0.03 0.03 0.03 0.03 0.03 0.04 0.03 0.03 0.03 0.02 0.02 0.02 0.02 0.01 0.01 0.01 0.00
0.03 0.02 0.02 0.02 0.03 0.03 0.04 0.03 0.03 0.03 0.03 0.04 0.03 0.03 0.02 0.02 0.02 0.03 0.02 0.02 0.02 0.02 0.04 0.05 0.04 0.04 0.04 0.04 0.04 0.04 0.05 0.06 0.05 0.03 0.04 0.03 0.02 0.02 0.02 0.01 0.01 0.00 0.00
0.03 0.03 0.03 0.03 0.04 0.05 0.05 0.05 0.05 0.04 0.04 0.03 0.04 0.04 0.04 0.04 0.04 0.04 0.04 0.04 0.04 0.05 0.04 0.06 0.06 0.05 0.05 0.05 0.06 0.08 0.08 0.08 0.07 0.06 0.06 0.04 0.02 0.02 0.01 0.01 0.01 0.01 0.01
0.03 0.03 0.03 0.03 0.03 0.04 0.04 0.04 0.05 0.04 0.03 0.03 0.04 0.04 0.05 0.05 0.06 0.05 0.05 0.04 0.06 0.07 0.07 0.07 0.05 0.05 0.05 0.07 0.09 0.09 0.09 0.09 0.08 0.06 0.05 0.04 0.02 0.02 0.02 0.01 0.01 0.01 0.01
MSLP
1010.53 1010.46 1010.32 1010.11 1009.84 1009.54 1009.24 1008.95 1008.69 1008.47 1008.29 1008.15 1008.08 1008.07 1008.14 1008.31 1008.57 1008.93 1009.37 1009.86 1010.38 1010.91 1011.43 1011.91 1012.35 1012.73 1013.05 1013.30 1013.48 1013.60 1013.69 1013.76 1013.85 1013.99 1014.21 1014.51 1014.88 1015.29 1015.71 1016.09 1016.40 1016.62 1016.78
1010.86 1010.82 1010.73 1010.61 1010.44 1010.25 1010.06 1009.87 1009.69 1009.54 1009.41 1009.32 1009.27 1009.27 1009.34 1009.49 1009.72 1010.04 1010.43 1010.88 1011.35 1011.84 1012.30 1012.72 1013.08 1013.37 1013.59 1013.73 1013.81 1013.85 1013.88 1013.92 1014.01 1014.16 1014.40 1014.71 1015.07 1015.46 1015.83 1016.14 1016.39 1016.56 1016.69
1011.17 1011.12 1011.06 1010.98 1010.90 1010.81 1010.71 1010.63 1010.55 1010.49 1010.44 1010.40 1010.39 1010.41 1010.48 1010.61 1010.79 1011.05 1011.36 1011.72 1012.11 1012.50 1012.87 1013.20 1013.48 1013.70 1013.85 1013.94 1013.99 1014.02 1014.05 1014.10 1014.22 1014.40 1014.64 1014.94 1015.28 1015.61 1015.92 1016.17 1016.37 1016.51 1016.61
1011.46 1011.37 1011.30 1011.25 1011.20 1011.17 1011.15 1011.14 1011.15 1011.16 1011.18 1011.20 1011.23 1011.28 1011.35 1011.45 1011.59 1011.77 1011.99 1012.24 1012.51 1012.78 1013.05 1013.29 1013.50 1013.68 1013.82 1013.92 1014.00 1014.08 1014.17 1014.28 1014.44 1014.64 1014.88 1015.15 1015.43 1015.70 1015.94 1016.14 1016.29 1016.41 1016.53
1011.72 1011.60 1011.50 1011.43 1011.39 1011.38 1011.39 1011.42 1011.46 1011.51 1011.58 1011.64 1011.70 1011.77 1011.84 1011.92 1012.01 1012.12 1012.24 1012.38 1012.53 1012.69 1012.86 1013.03 1013.20 1013.37 1013.54 1013.71 1013.88 1014.05 1014.23 1014.42 1014.63 1014.84 1015.07 1015.29 1015.50 1015.69 1015.86 1016.00 1016.13 1016.26 1016.39
1011.99 1011.83 1011.70 1011.60 1011.54 1011.51 1011.51 1011.54 1011.58 1011.64 1011.70 1011.77 1011.85 1011.92 1011.99 1012.05 1012.11 1012.15 1012.20 1012.24 1012.29 1012.35 1012.44 1012.56 1012.71 1012.90 1013.12 1013.37 1013.65 1013.93 1014.21 1014.48 1014.72 1014.95 1015.14 1015.30 1015.44 1015.55 1015.66 1015.76 1015.87 1016.00 1016.17
1012.29 1012.11 1011.95 1011.83 1011.74 1011.68 1011.65 1011.64 1011.65 1011.67 1011.71 1011.76 1011.83 1011.89 1011.95 1012.00 1012.03 1012.03 1012.01 1011.98 1011.95 1011.94 1011.96 1012.03 1012.17 1012.38 1012.66 1012.99 1013.35 1013.73 1014.09 1014.42 1014.69 1014.90 1015.06 1015.17 1015.23 1015.28 1015.33 1015.40 1015.50 1015.65 1015.84
1012.61 1012.43 1012.27 1012.15 1012.04 1011.96 1011.89 1011.84 1011.80 1011.77 1011.77 1011.78 1011.82 1011.87 1011.92 1011.95 1011.96 1011.94 1011.88 1011.80 1011.70 1011.62 1011.58 1011.61 1011.72 1011.93 1012.22 1012.60 1013.01 1013.44 1013.85 1014.21 1014.49 1014.69 1014.82 1014.87 1014.89 1014.89 1014.90 1014.95 1015.05 1015.21 1015.41
1012.93 1012.77 1012.64 1012.53 1012.44 1012.35 1012.27 1012.18 1012.10 1012.02 1011.97 1011.95 1011.95 1011.98 1012.02 1012.05 1012.05 1012.01 1011.92 1011.80 1011.65 1011.51 1011.40 1011.36 1011.42 1011.59 1011.86 1012.22 1012.64 1013.07 1013.49 1013.85 1014.13 1014.31 1014.41 1014.44 1014.43 1014.42 1014.42 1014.46 1014.55 1014.70 1014.90
1013.19 1013.06 1012.97 1012.91 1012.85 1012.78 1012.71 1012.61 1012.50 1012.40 1012.31 1012.26 1012.24 1012.25 1012.28 1012.30 1012.30 1012.25 1012.15 1011.99 1011.79 1011.58 1011.40 1011.29 1011.26 1011.35 1011.55 1011.84 1012.21 1012.61 1012.99 1013.33 1013.59 1013.77 1013.87 1013.91 1013.90 1013.90 1013.90 1013.95 1014.04 1014.17 1014.34
1013.34 1013.24 1013.20 1013.18 1013.16 1013.14 1013.08 1013.00 1012.90 1012.78 1012.68 1012.61 1012.57 1012.57 1012.60 1012.62 1012.62 1012.57 1012.45 1012.26 1012.02 1011.75 1011.50 1011.28 1011.16 1011.14 1011.23 1011.43 1011.71 1012.03 1012.37 1012.67 1012.92 1013.11 1013.23 1013.30 1013.33 1013.36 1013.39 1013.45 1013.54 1013.65 1013.77
1013.33 1013.26 1013.24 1013.26 1013.29 1013.30 1013.28 1013.22 1013.13 1013.02 1012.91 1012.84 1012.80 1012.79 1012.82 1012.85 1012.85 1012.80 1012.67 1012.47 1012.19 1011.88 1011.55 1011.25 1011.02 1010.89 1010.87 1010.96 1011.14 1011.37 1011.64 1011.91 1012.15 1012.36 1012.51 1012.63 1012.72 1012.80 1012.88 1012.96 1013.04 1013.13 1013.21
1013.16 1013.10 1013.10 1013.13 1013.19 1013.22 1013.22 1013.18 1013.10 1013.00 1012.90 1012.83 1012.79 1012.79 1012.81 1012.85 1012.85 1012.81 1012.68 1012.48 1012.19 1011.84 1011.47 1011.10 1010.79 1010.57 1010.45 1010.43 1010.51 1010.66 1010.87 1011.10 1011.33 1011.55 1011.75 1011.93 1012.08 1012.22 1012.34 1012.44 1012.53 1012.60 1012.64
1012.90 1012.83 1012.81 1012.85 1012.90 1012.93 1012.94 1012.90 1012.82 1012.73 1012.63 1012.56 1012.52 1012.52 1012.55 1012.58 1012.60 1012.56 1012.45 1012.25 1011.96 1011.61 1011.22 1010.83 1010.47 1010.19 1009.99 1009.89 1009.88 1009.96 1010.10 1010.29 1010.51 1010.73 1010.96 1011.18 1011.38 1011.57 1011.73 1011.86 1011.96 1012.02 1012.04
1012.64 1012.55 1012.52 1012.53 1012.55 1012.56 1012.54 1012.49 1012.40 1012.30 1012.19 1012.12 1012.07 1012.07 1012.10 1012.14 1012.15 1012.12 1012.03 1011.84 1011.58 1011.25 1010.87 1010.49 1010.12 1009.81 1009.56 1009.41 1009.34 1009.34 1009.42 1009.55 1009.73 1009.94 1010.16 1010.39 1010.62 1010.83 1011.02 1011.17 1011.28 1011.35 1011.37
1012.52 1012.42 1012.37 1012.34 1012.32 1012.29 1012.23 1012.14 1012.02 1011.90 1011.78 1011.69 1011.64 1011.63 1011.65 1011.68 1011.70 1011.67 1011.58 1011.42 1011.19 1010.89 1010.55 1010.19 1009.84 1009.53 1009.27 1009.08 1008.95 1008.89 1008.89 1008.95 1009.05 1009.19 1009.37 1009.57 1009.78 1009.99 1010.18 1010.35 1010.48 1010.56 1010.61
1012.66 1012.57 1012.50 1012.44 1012.37 1012.29 1012.19 1012.05 1011.90 1011.75 1011.62 1011.51 1011.44 1011.42 1011.42 1011.44 1011.44 1011.41 1011.32 1011.18 1010.97 1010.71 1010.40 1010.08 1009.77 1009.47 1009.20 1008.98 1008.80 1008.66 1008.56 1008.51 1008.51 1008.55 1008.63 1008.75 1008.90 1009.07 1009.24 1009.41 1009.55 1009.67 1009.76
1013.10 1013.04 1012.98 1012.90 1012.80 1012.68 1012.53 1012.35 1012.17 1011.99 1011.84 1011.72 1011.64 1011.59 1011.57 1011.56 1011.54 1011.49 1011.39 1011.24 1011.04 1010.80 1010.53 1010.24 1009.94 1009.66 1009.38 1009.12 1008.88 1008.66 1008.45 1008.27 1008.13 1008.03 1007.97 1007.98 1008.03 1008.13 1008.26 1008.41 1008.56 1008.71 1008.85
1013.86 1013.84 1013.79 1013.71 1013.60 1013.44 1013.26 1013.05 1012.84 1012.65 1012.48 1012.35 1012.25 1012.19 1012.15 1012.11 1012.06 1011.97 1011.84 1011.67 1011.45 1011.21 1010.94 1010.66 1010.37 1010.09 1009.80 1009.50 1009.19 1008.87 1008.55 1008.23 1007.93 1007.67 1007.47 1007.33 1007.26 1007.27 1007.33 1007.45 1007.60 1007.77 1007.95
1014.83 1014.86 1014.84 1014.77 1014.64 1014.47 1014.27 1014.04 1013.82 1013.62 1013.45 1013.31 1013.22 1013.15 1013.08 1013.01 1012.92 1012.79 1012.61 1012.40 1012.15 1011.87 1011.59 1011.29 1011.00 1010.70 1010.38 1010.04 1009.66 1009.26 1008.82 1008.37 1007.93 1007.52 1007.16 1006.88 1006.69 1006.59 1006.58 1006.65 1006.78 1006.95 1007.15
1015.91 1015.98 1015.98 1015.91 1015.78 1015.60 1015.38 1015.15 1014.93 1014.73 1014.57 1014.44 1014.35 1014.27 1014.20 1014.10 1013.97 1013.79 1013.56 1013.29 1012.99 1012.67 1012.35 1012.03 1011.71 1011.38 1011.03 1010.65 1010.23 1009.75 1009.23 1008.68 1008.12 1007.58 1007.10 1006.69 1006.39 1006.19 1006.10 1006.10 1006.19 1006.34 1006.53
1016.96 1017.04 1017.04 1016.97 1016.84 1016.65 1016.42 1016.19 1015.97 1015.79 1015.64 1015.53 1015.45 1015.38 1015.30 1015.19 1015.02 1014.80 1014.52 1014.20 1013.84 1013.48 1013.11 1012.75 1012.40 1012.05 1011.68 1011.27 1010.82 1010.31 1009.74 1009.13 1008.49 1007.88 1007.31 1006.81 1006.41 1006.12 1005.95 1005.89 1005.91 1006.00 1006.14
1017.88 1017.94 1017.93 1017.85 1017.70 1017.49 1017.26 1017.04 1016.83 1016.65 1016.53 1016.44 1016.38 1016.32 1016.24 1016.11 1015.93 1015.67 1015.36 1014.99 1014.59 1014.18 1013.77 1013.38 1013.01 1012.64 1012.26 1011.85 1011.39 1010.87 1010.30 1009.67 1009.02 1008.38 1007.76 1007.21 1006.75 1006.40 1006.15 1006.00 1005.94 1005.95 1006.00
1018.61 1018.63 1018.59 1018.48 1018.31 1018.09 1017.86 1017.64 1017.44 1017.28 1017.18 1017.11 1017.06 1017.01 1016.94 1016.81 1016.61 1016.33 1015.99 1015.59 1015.16 1014.71 1014.28 1013.87 1013.48 1013.11 1012.73 1012.34 1011.90 1011.42 1010.88 1010.28 1009.66 1009.03 1008.42 1007.85 1007.36 1006.95 1006.63 1006.40 1006.24 1006.14 1006.08
1019.15 1019.12 1019.05 1018.91 1018.72 1018.50 1018.27 1018.05 1017.87 1017.73 1017.64 1017.58 1017.54 1017.49 1017.41 1017.28 1017.07 1016.78 1016.42 1016.00 1015.55 1015.09 1014.64 1014.22 1013.83 1013.46 1013.10 1012.73 1012.34 1011.91 1011.42 1010.90 1010.33 1009.75 1009.17 1008.62 1008.12 1007.67 1007.29 1006.97 1006.71 1006.49 1006.30
1019.54 1019.48 1019.37 1019.22 1019.03 1018.82 1018.60 1018.40 1018.23 1018.10 1018.01 1017.95 1017.91 1017.85 1017.75 1017.60 1017.37 1017.06 1016.68 1016.26 1015.79 1015.32 1014.87 1014.44 1014.05 1013.70 1013.36 1013.03 1012.68 1012.30 1011.89 1011.43 1010.94 1010.42 1009.89 1009.38 1008.88 1008.42 1007.99 1007.60 1007.24 1006.90 1006.58
Thickness
5778 5778 5775 5775 5776 5776 5775 5773 5773 5772 5771 5771 5771 5769 5769 5767 5766 5764 5760 5755 5753 5751 5750 5748 5747 5746 5744 5742 5741 5740 5738 5737 5735 5734 5733 5732 5731 5730 5729 5728 5727 5726 5725
5778 5778 5777 5776 5776 5776 5775 5773 5773 5772 5772 5771 5770 5769 5768 5767 5763 5762 5761 5757 5754 5752 5750 5748 5747 5746 5744 5742 5741 5739 5738 5736 5735 5733 5732 5731 5730 5729 5728 5727 5726 5725 5724
5777 5778 5778 5777 5776 5776 5775 5774 5773 5774 5773 5772 5770 5769 5768 5766 5764 5762 5761 5760 5757 5753 5751 5749 5747 5745 5744 5742 5740 5739 5737 5736 5734 5733 5731 5730 5729 5728 5727 5726 5725 5724 5724
5778 5778 5779 5778 5776 5776 5776 5775 5775 5773 5772 5772 5771 5770 5769 5766 5764 5763 5763 5761 5760 5758 5753 5750 5748 5745 5744 5742 5740 5738 5737 5735 5734 5732 5730 5729 5728 5727 5726 5725 5724 5723 5723
5779 5779 5779 5777 5777 5777 5777 5777 5775 5774 5771 5771 5771 5770 5770 5768 5766 5766 5764 5762 5760 5758 5756 5751 5748 5746 5744 5742 5740 5738 5736 5735 5734 5732 5730 5728 5727 5726 5725 5724 5723 5723 5722
5780 5780 5780 5778 5778 5778 5776 5775 5772 5772 5771 5771 5773 5771 5770 5771 5769 5767 5766 5764 5761 5759 5757 5754 5751 5748 5744 5742 5740 5738 5736 5735 5733 5731 5730 5728 5726 5725 5724 5723 5723 5722 5721
5780 5779 5781 5778 5778 5777 5775 5776 5774 5773 5772 5772 5771 5769 5771 5772 5769 5767 5766 5765 5763 5761 5758 5755 5753 5751 5747 5743 5740 5738 5736 5734 5732 5731 5729 5728 5726 5724 5723 5722 5722 5722 5721
5780 5782 5779 5780 5778 5776 5774 5774 5772 5773 5773 5772 5769 5767 5764 5764 5766 5769 5766 5765 5763 5762 5760 5757 5753 5750 5749 5746 5742 5738 5735 5734 5732 5731 5729 5727 5726 5724 5723 5722 5721 5721 5720
5781 5780 5779 5779 5778 5778 5776 5774 5772 5770 5769 5771 5772 5767 5762 5758 5763 5766 5765 5765 5762 5761 5760 5758 5755 5751 5749 5746 5743 5739 5736 5734 5732 5730 5729 5727 5725 5724 5722 5721 5721 5720 5720
5781 5780 5779 5777 5777 5778 5776 5775 5774 5772 5769 5769 5770 5769 5768 5765 5759 5758 5763 5765 5762 5760 5760 5759 5757 5753 5749 5747 5743 5739 5736 5733 5732 5730 5728 5726 5725 5723 5722 5721 5720 5719 5719
5780 5780 5778 5776 5776 5776 5775 5774 5772 5771 5772 5769 5769 5769 5767 5765 5764 5758 5755 5758 5760 5761 5760 5758 5756 5754 5750 5747 5744 5740 5736 5733 5731 5729 5727 5726 5724 5722 5721 5720 5719 5718 5718
5780 5779 5778 5776 5775 5775 5774 5773 5772 5771 5770 5768 5768 5769 5766 5764 5763 5760 5756 5755 5756 5759 5760 5758 5757 5754 5751 5748 5744 5739 5736 5733 5730 5728 5726 5724 5723 5721 5720 5719 5718 5717 5717
5780 5778 5778 5775 5775 5774 5773 5772 5770 5770 5769 5766 5766 5767 5767 5766 5765 5763 5758 5757 5755 5758 5757 5758 5757 5754 5751 5748 5743 5738 5735 5733 5730 5727 5725 5723 5721 5719 5718 5717 5716 5716 5715
5781 5779 5776 5775 5774 5773 5773 5771 5771 5770 5768 5766 5766 5765 5765 5766 5766 5763 5760 5756 5752 5754 5754 5754 5756 5753 5750 5747 5743 5738 5736 5732 5729 5726 5724 5722 5720 5718 5716 5715 5714 5713 5712
5781 5778 5776 5775 5773 5772 5771 5769 5769 5767 5766 5765 5766 5765 5764 5766 5765 5764 5761 5758 5752 5747 5749 5752 5753 5753 5749 5746 5741 5738 5736 5731 5728 5725 5723 5721 5718 5716 5714 5713 5712 5711 5710
5779 5777 5775 5774 5772 5771 5770 5768 5767 5766 5764 5763 5763 5761 5760 5763 5763 5761 5759 5757 5755 5750 5748 5752 5751 5752 5747 5745 5740 5737 5735 5731 5727 5724 5721 5719 5717 5715 5713 5711 5710 5708 5707
5778 5776 5774 5772 5771 5770 5768 5766 5766 5764 5762 5762 5762 5760 5758 5757 5758 5758 5757 5755 5753 5750 5745 5749 5751 5749 5743 5740 5738 5736 5734 5731 5729 5724 5720 5717 5715 5713 5711 5709 5708 5706 5704
5777 5775 5773 5771 5770 5769 5767 5765 5763 5763 5761 5759 5759 5757 5756 5756 5753 5752 5752 5751 5749 5747 5744 5741 5743 5743 5739 5737 5734 5732 5733 5731 5728 5723 5719 5716 5713 5710 5708 5706 5705 5703 5701
5776 5774 5772 5770 5768 5767 5765 5763 5762 5760 5759 5758 5756 5754 5753 5751 5749 5749 5747 5746 5746 5746 5742 5740 5739 5738 5737 5735 5731 5729 5730 5726 5725 5722 5717 5713 5710 5707 5705 5703 5701 5700 5698
5774 5771 5770 5768 5766 5764 5763 5761 5760 5758 5756 5755 5754 5752 5750 5749 5746 5744 5743 5741 5741 5739 5738 5736 5734 5734 5731 5731 5727 5725 5724 5724 5722 5721 5717 5713 5709 5705 5703 5700 5698 5696 5694
5772 5769 5766 5765 5763 5762 5760 5757 5756 5755 5753 5751 5750 5748 5747 5744 5741 5739 5740 5738 5736 5734 5733 5731 5730 5729 5727 5723 5722 5723 5721 5719 5718 5717 5714 5711 5709 5706 5702 5698 5695 5692 5690
5768 5766 5763 5762 5760 5760 5755 5751 5749 5750 5748 5746 5744 5743 5742 5739 5736 5733 5731 5728 5726 5726 5726 5724 5724 5722 5719 5719 5718 5716 5714 5711 5709 5714 5708 5707 5707 5704 5702 5698 5694 5689 5685
5764 5761 5760 5758 5756 5754 5750 5746 5743 5744 5744 5742 5739 5738 5739 5739 5733 5732 5728 5724 5722 5719 5716 5717 5717 5716 5715 5715 5711 5709 5707 5705 5704 5706 5702 5700 5701 5698 5697 5695 5690 5685 5681
5761 5758 5756 5754 5752 5750 5744 5741 5738 5739 5740 5739 5736 5734 5732 5730 5728 5724 5723 5721 5720 5718 5714 5712 5711 5711 5711 5709 5706 5703 5701 5699 5698 5699 5696 5692 5694 5693 5693 5689 5684 5680 5676
5756 5754 5752 5750 5747 5744 5739 5735 5732 5736 5735 5734 5732 5730 5727 5724 5719 5714 5713 5712 5711 5711 5709 5707 5705 5703 5701 5699 5697 5696 5694 5692 5691 5692 5691 5687 5687 5686 5685 5684 5680 5675 5672
5751 5749 5747 5745 5743 5740 5734 5730 5725 5731 5729 5728 5727 5724 5719 5715 5711 5707 5706 5705 5703 5703 5704 5703 5700 5697 5697 5695 5691 5689 5689 5686 5685 5684 5685 5679 5679 5677 5676 5678 5675 5671 5666